Nanning Wuxu Airport
ZGNN : now visible

Airfield :











YOU CAN JOIN US ON...

 
LOGIN :

Register | Disclaimer

   EN    FR    IT 

 









Legend :    VFR   Marginal VFR   IFR   Intensive IFR   Very Intensive IFR
Visi :
Ceiling :
>= 8 km
>= 3000ft
5 to 8 km
1000 to 3000 ft
1500m to 5 km
500 to 1000 ft
800 to 1500m
200 to 500 ft
< 800m
< 200 ft
Symbols :   Thunderstorms  Fog  Heavy snow  Heavy precipitations  Wind > 20 kt






- Airport Elevation : 421 ft
- IATA code : NNG


ZGNN - Nanning Wuxu

CURRENT METAR :
  • 022200Z 31001MPS CAVOK 24/23 Q0999 BECMG TL2320 TSRA SCT010 FEW026CB BKN030

EXPIRED METARs :
  • 022100Z VRB01MPS CAVOK 25/23 Q0999 NOSIG
  • 022000Z VRB01MPS CAVOK 25/24 Q0999 NOSIG

TAF TAF ZGNN
Valid from the 02 at 18:00 until the 03 at 18:00 UTC


021509Z 0218/0318 05003MPS 5000 BR FEW010 BKN030 TX35/0307Z TN24/0222Z
TEMPO 0305/0311 TSRA SCT010 FEW026CB BKN030
ZGZU FIR / Asia



MET'MAP, your aeronautical weather chart ! - Copyright ORBIFLY December 2007 - Disclaimer

ORBIFLY MET'MAP TEAM :

Programming & Development : Alexandra Zaïnal
Concept & original design : Baudouin d'Aumeries
Assistance for programming : Marc-Olivier Méhu
Technical & hardware support : Manuel Goepfert

Contact : metmap@orbifly.com




SOURCES & CREDITS :

   NOAA       Earth
Advisory